Volver al catálogo

UK-DMC

ActivoCienciaSSO
NORAD 27942·PAYLOAD·🇬🇧 United Kingdom

Lanzado Sep 27, 2003 desde Plesetsk Cosmodrome

Loading…

Próximos Pases (próximas 24 horas)

TLE

ActualizadoSource: Space-Track

Época: Sep 14, 2026, 05:55 UTC

1 27942U 03042D   26257.24705480  .00000770  00000-0  90205-4 0  9999
2 27942  98.0803  87.9550 0052023 273.1014  86.4249 14.87193777236006

Sigue UK-DMC en tiempo real con AllMySat

Download on the App Store